AAUSAT2
1 32788U 08021F 15232.18524300 .00001147 00000-0 11832-3 0 9996
2 32788 097.6469 279.5050 0012252 189.8862 170.2118 14.92045869396144
DO-64
1 32789U 08021G 15232.14628988 .00002298 00000-0 18664-3 0 9998
2 32789 097.6730 291.3874 0012845 189.2504 223.3639 15.00549712396679
CO-66
1 32791U 08021J 15232.67552674 .00000764 00000-0 86807-4 0 9998
2 32791 097.6456 276.0071 0013354 199.9816 160.0880 14.88973003395916
RS-30
1 32953U 08025A 15232.94626218 .00000010 00000-0 -13620-7 0 9999
2 32953 082.5044 293.9729 0017478 300.9168 059.0198 12.43062715328659
METEOR-M
1 35865U 09049A 15232.75637081 .00000011 00000-0 23861-4 0 9995
2 35865 098.4956 270.7721 0001317 303.1451 191.7526 14.22044427307387
RS-38
1 35869U 09049E 15232.68082990 .00000018 00000-0 27102-4 0 9993
2 35869 098.4868 270.2977 0003793 293.4319 066.6445 14.22306437307422
JUGNU
1 37839U 11058B 15232.23696789 .00000342 00000-0 40665-4 0 9992
2 37839 019.9606 174.2221 0019041 032.8221 117.8405 14.12483018199282
SRMSAT
1 37841U 11058D 15232.04083437 .00000329 00000-0 35749-4 0 9996
2 37841 019.9709 203.4162 0011703 314.3095 108.7615 14.10492284198972
RAX-2
1 37853U 11061D 15232.94710260 .00001786 00000-0 11564-3 0 9999
2 37853 101.7012 115.8471 0194499 246.5588 236.8734 14.96697100206791
AUBIESAT
1 37854U 11061E 15232.48400786 .00001921 00000-0 12037-3 0 9995
2 37854 101.7049 119.0323 0184878 241.6613 195.1724 14.98880823206850
HRBE
1 37855U 11061F 15232.73108197 .00001432 00000-0 91888-4 0 9994
2 37855 101.7021 117.8089 0194818 244.5690 113.5245 14.97680813206812
HORYU-2
1 38340U 12025D 15232.18089606 .00000628 00000-0 10269-3 0 9996
2 38340 098.3193 203.7861 0010533 251.3979 108.6085 14.74441586174967
RS-40
1 38735U 12041C 15232.84794364 .00000040 00000-0 21992-3 0 9992
2 38735 082.4749 019.6527 0017356 041.8652 318.3753 12.42569844138940
PROITERES
1 38756U 12047B 15232.87808419 .00000396 00000-0 65431-4 0 9992
2 38756 098.2248 333.2739 0013476 090.9958 269.2782 14.75894535158545
BEESAT-3
1 39134U 13015E 15232.87953668 .00003366 00000-0 19970-3 0 9992
2 39134 064.8713 210.4271 0028120 243.5809 116.2429 15.12821606128482
BEESAT-2
1 39136U 13015G 15232.21300151 .00002468 00000-0 15655-3 0 9993
2 39136 064.8718 215.5004 0028382 242.6508 117.1726 15.11079041128336
ZACUBE-1
1 39417U 13066B 15232.84085800 .00000526 00000-0 74789-4 0 9998
2 39417 097.7246 292.9175 0058827 286.3012 073.1736 14.79849309 94192
TRITON-1
1 39427U 13066M 15231.79164711 .00000363 00000-0 67557-4 0 9995
2 39427 097.7096 278.7840 0114642 324.6725 034.6921 14.66758034 93188
DELFIN3XT
1 39428U 13066N 15232.53221125 .00000611 00000-0 10933-3 0 9993
2 39428 097.7102 277.6760 0123019 327.5720 031.7966 14.65572089 93169
GOMX-1
1 39430U 13066Q 15232.78484576 .00000618 00000-0 12316-3 0 9998
2 39430 097.7033 271.2206 0153180 346.7351 012.9825 14.58173208 92790
MO-76
1 39436U 13066W 15232.89357631 .00011693 00000-0 74231-3 0 9996
2 39436 097.7414 309.5245 0020413 240.1062 119.8138 15.08865826 95242
LO-74
1 39440U 13066AA 15232.93669159 .00000455 00000-0 72322-4 0 9991
2 39440 097.7187 287.7959 0080525 299.0662 060.2499 14.74658125 93872
PUCPSAT-1
1 39442U 13066AC 15232.67811498 .00000788 00000-0 89381-4 0 9991
2 39442 097.7348 301.2142 0031465 269.9886 089.7725 14.88799031 93462
SPROUT
1 39770U 14029E 15231.83710584 .00001817 00000-0 22455-3 0 9998
2 39770 097.8740 327.7972 0009570 002.3919 357.7331 14.84007889 67073
POPSAT-HIP1
1 40028U 14033U 15232.91619169 .00001214 00000-0 14107-3 0 9994
2 40028 097.9487 133.3479 0013993 336.3394 023.7174 14.87179316 63400
EO-80
1 40032U 14033Y 15232.79113994 .00000638 00000-0 77756-4 0 9999
2 40032 097.9446 132.8356 0011598 333.0902 026.9711 14.86857883 63375
VELOX-1
1 40057U 14034E 15232.87797461 .00000963 00000-0 14748-3 0 9995
2 40057 098.2150 312.0398 0012158 037.5902 322.6141 14.75997808 61422
DAURIA DX 1
1 40071U 14037C 15232.94464541 .00000425 00000-0 62991-4 0 9999
2 40071 098.3538 307.0137 0009420 038.5772 321.6091 14.80473996 60377
UKUBE-1
1 40074U 14037F 15232.90032162 .00000965 00000-0 12789-3 0 9996
2 40074 098.3555 307.9589 0005656 048.9397 311.2277 14.82359146 60423
HODOYOSHI-1
1 40299U 14070B 15232.93926971 .00002336 00000-0 11250-3 0 9991
2 40299 097.4542 313.6531 0011375 268.0220 146.8913 15.19698200 43657
CHUBUSAT-1
1 40300U 14070C 15232.90267426 .00002297 00000-0 11571-3 0 9996
2 40300 097.4512 312.7165 0020547 269.7600 180.1350 15.18022999 43595
QSAT-EOS
1 40301U 14070D 15232.83812341 .00004324 00000-0 21528-3 0 9997
2 40301 097.4467 311.9350 0030078 270.1854 222.8558 15.17732984 43549
TSUBAME
1 40302U 14070E 15232.93289984 .00002545 00000-0 14358-3 0 9996
2 40302 097.4448 310.4822 0041136 274.5897 133.4209 15.13360701 43460
FIREBIRD FU3
1 40377U 15003B 15232.87331723 .00005834 00000-0 28693-3 0 9998
2 40377 099.1129 278.3324 0156244 042.0030 319.3051 15.08403010 30304
FIREBIRD FU4
1 40378U 15003C 15232.93698046 .00005661 00000-0 27822-3 0 9991
2 40378 099.1130 278.4157 0156529 041.7635 319.5411 15.08408404 30310
GRIFEX
1 40379U 15003D 15232.94069134 .00004724 00000-0 23795-3 0 9997
2 40379 099.1140 278.2584 0157965 043.2672 318.0832 15.07554983 30300
LAMBDA-SAT
1 40458U 98067GB 15136.30676273 .20783109 12527-4 14817-2 0 9995
2 40458 051.6075 233.7697 0010355 318.5347 043.1720 16.39926603 21161
NO-84
1 40654U 15232.45207151 .00007862 00000-0 20225-3 0 00984
2 40654 054.9906 301.4539 0244603 048.0292 314.1094 15.15230309013918
NO-83
1 40655U 15232.42150062 .00013369 00000-0 32966-3 0 01053
2 40655 054.9926 301.2859 0241629 048.0775 314.0449 15.16161225013919
DEORBITSAIL
1 40719U 15032E 15232.03281984 .00001048 00000-0 16451-3 0 9993
2 40719 098.0486 120.9122 0018024 122.4135 237.8729 14.74633050 5947
/EX
1
0
SB KEPS @ AMSAT $ORB15225.N
2Line Orbital Elements 15225.AMSAT
HR AMSAT ORBITAL ELEMENTS FOR AMATEUR SATELLITES IN NASA FORMAT
FROM WA5QGD FORT WORTH,TX August 13, 2015
BID: ORB15225.N
DECODE 2-LINE ELSETS WITH THE FOLLOWING KEY:
1 AAAAAU 00 0 0 BBBBB.BBBBBBBB .CCCCCCCC 00000-0 00000-0 0 DDDZ
2 AAAAA EEE.EEEE FFF.FFFF GGGGGGG HHH.HHHH III.IIII JJ.JJJJJJJJKKKKKZ
KEY: A-CATALOGNUM B-EPOCHTIME C-DECAY D-ELSETNUM E-INCLINATION F-RAAN
G-ECCENTRICITY H-ARGPERIGEE I-MNANOM J-MNMOTION K-ORBITNUM Z-CHECKSUM
TO ALL RADIO AMATEURS BT
AO-07
1 07530U 74089B 15225.77519950 -.00000044 00000-0 -15737-5 0 9999
2 07530 101.5262 199.6485 0011763 188.9768 221.0964 12.53615892864476
FO-29
1 24278U 96046B 15225.40943199 -.00000030 00000-0 89824-5 0 9992
2 24278 098.5459 186.4791 0349349 282.5246 253.4301 13.53055297937762
SO-33
1 25509U 98061B 15224.55750019 .00000494 00000-0 82735-4 0 9997
2 25509 031.4334 291.8836 0347708 207.6620 150.5104 14.30036077877492
RS-22
1 27939U 03042A 15225.68015544 .00000264 00000-0 56340-4 0 9991
2 27939 097.8479 025.0366 0012373 201.1041 158.9649 14.66120615634617
HO-68
1 36122U 09072B 15225.55170887 -.00000060 00000-0 -43517-4 0 9990
2 36122 100.1898 268.2981 0007333 350.8957 009.2025 13.16328530272003
AO-73
1 39444U 13066AE 15225.21117822 .00000728 00000-0 99590-4 0 9992
2 39444 097.7263 285.8686 0058441 310.7390 048.8756 14.80391401 91850
EO-79
1 40025U 14033R 15225.67353555 .00000796 00000-0 94351-4 0 9994
2 40025 097.9461 126.0076 0013004 003.1037 357.0257 14.87292933 62345
UO-11
1 14781U 84021B 15225.20396601 .00000361 00000-0 51394-4 0 9994
2 14781 097.7968 280.8687 0007299 239.8453 120.2038 14.82475322690479
